Temp
-10 -10 -10 -9 -9 -8 -8 -7 -7 -7 -7 -7 -7 -7 -7 -7 -7 -6 -6 -6 -6 -7 -6 -6 -6 -6 -6 -7 -6 -6 -5 -6 -6 -4 -3 -3 -3 -3 -2 -2 -3 -4 -4 -1
-10 -10 -10 -10 -10 -10 -9 -8 -8 -9 -9 -9 -8 -7 -7 -7 -7 -8 -7 -7 -7 -7 -7 -7 -6 -6 -6 -6 -6 -6 -6 -6 -6 -5 -4 -4 -4 -4 -5 -5 -5 -5 -4 -1
-11 -11 -11 -11 -11 -11 -10 -9 -9 -9 -9 -10 -9 -9 -9 -9 -8 -9 -9 -8 -8 -7 -7 -7 -7 -7 -7 -7 -6 -6 -7 -6 -6 -6 -5 -5 -5 -4 -5 -6 -6 -5 -5 -3
-11 -11 -11 -11 -11 -12 -11 -10 -11 -11 -11 -10 -9 -9 -9 -9 -9 -9 -9 -9 -8 -8 -8 -8 -8 -8 -8 -8 -7 -7 -7 -7 -7 -6 -6 -6 -6 -6 -5 -5 -6 -5 -5 -5
-11 -11 -11 -11 -12 -12 -11 -11 -11 -11 -11 -11 -10 -10 -10 -9 -9 -9 -9 -9 -9 -9 -10 -10 -10 -9 -9 -9 -8 -8 -7 -8 -8 -7 -7 -7 -7 -6 -5 -5 -5 -5 -5 -5
-11 -12 -12 -11 -12 -11 -11 -12 -11 -12 -12 -11 -11 -11 -11 -10 -10 -10 -10 -9 -10 -10 -10 -10 -10 -9 -9 -9 -9 -9 -9 -9 -9 -9 -8 -9 -8 -6 -6 -5 -4 -4 -5 -3
-12 -12 -11 -12 -12 -12 -12 -11 -12 -12 -11 -11 -11 -11 -11 -11 -11 -11 -10 -10 -10 -10 -10 -10 -10 -10 -9 -9 -9 -9 -9 -9 -9 -9 -9 -12 -7 -6 -5 -5 -5 -5 -5 -4
-12 -12 -12 -12 -12 -12 -12 -12 -12 -12 -12 -11 -11 -11 -11 -11 -11 -11 -11 -11 -11 -11 -11 -11 -10 -10 -9 -8 -8 -8 -8 -8 -10 -10 -9 -8 -8 -5 -6 -6 -6 -5 -5 -5
-12 -12 -12 -12 -12 -12 -12 -12 -12 -12 -12 -11 -11 -11 -11 -11 -11 -11 -11 -11 -11 -11 -11 -11 -11 -11 -10 -10 -9 -9 -9 -8 -10 -9 -10 -9 -8 -6 -6 -7 -7 -5 -5 -5
-12 -12 -12 -12 -12 -12 -12 -12 -12 -12 -12 -11 -11 -11 -12 -12 -12 -12 -12 -12 -11 -12 -12 -12 -12 -12 -11 -11 -10 -10 -10 -9 -9 -10 -11 -10 -7 -5 -7 -8 -6 -6 -5 -5
-12 -12 -12 -12 -12 -12 -12 -12 -13 -13 -12 -11 -11 -11 -12 -12 -12 -12 -12 -13 -12 -12 -12 -13 -12 -12 -11 -11 -10 -10 -10 -10 -10 -10 -10 -11 -6 -7 -8 -6 -7 -6 -7 -6
-12 -12 -12 -12 -12 -12 -12 -12 -12 -12 -13 -12 -12 -12 -11 -12 -12 -13 -12 -12 -13 -13 -13 -12 -12 -12 -11 -11 -11 -10 -11 -10 -10 -10 -9 -8 -8 -7 -7 -8 -8 -7 -7 -6
-12 -12 -12 -12 -12 -12 -12 -12 -12 -12 -12 -13 -12 -11 -12 -12 -12 -13 -13 -12 -12 -12 -13 -13 -13 -13 -12 -12 -12 -11 -11 -10 -11 -10 -8 -8 -8 -8 -8 -7 -7 -7 -7 -7
-13 -13 -13 -13 -13 -12 -12 -12 -12 -13 -13 -13 -12 -11 -12 -12 -12 -12 -12 -12 -12 -12 -13 -13 -13 -13 -12 -12 -11 -12 -11 -11 -11 -11 -8 -9 -8 -8 -7 -7 -7 -7 -7 -7
-13 -13 -13 -13 -13 -13 -13 -13 -13 -13 -14 -13 -12 -12 -11 -12 -11 -12 -12 -12 -12 -12 -13 -13 -13 -12 -12 -12 -12 -11 -11 -10 -11 -10 -9 -9 -8 -8 -8 -8 -7 -7 -7 -7
-13 -13 -13 -13 -13 -13 -13 -13 -13 -13 -14 -14 -13 -12 -11 -11 -11 -11 -12 -12 -12 -12 -12 -12 -12 -12 -12 -12 -11 -7 -10 -10 -9 -9 -8 -8 -8 -8 -8 -7 -8 -7 -7 -7
-13 -13 -13 -13 -13 -13 -13 -14 -14 -14 -14 -14 -14 -12 -11 -11 -12 -12 -11 -11 -11 -11 -11 -11 -11 -11 -12 -11 -10 -5 -8 -9 -8 -8 -8 -8 -8 -8 -8 -8 -8 -7 -7 -7
-13 -13 -13 -13 -14 -13 -13 -14 -14 -14 -14 -14 -14 -13 -12 -12 -11 -11 -11 -11 -11 -11 -11 -11 -11 -11 -12 -11 -6 -6 -7 -8 -8 -8 -8 -8 -8 -8 -8 -8 -7 -7 -6 -7
-13 -13 -13 -13 -13 -13 -14 -14 -14 -14 -14 -14 -14 -13 -12 -12 -12 -12 -12 -13 -12 -12 -11 -11 -12 -11 -12 -7 -8 -8 -8 -9 -9 -9 -9 -8 -8 -8 -8 -8 -8 -7 -7 -7
-13 -13 -13 -13 -13 -14 -14 -14 -14 -14 -14 -14 -13 -12 -12 -12 -12 -12 -13 -13 -12 -12 -10 -10 -11 -9 -8 -10 -10 -10 -9 -9 -9 -9 -8 -9 -9 -9 -8 -8 -8 -8 -8 -8
-13 -13 -14 -14 -14 -14 -14 -14 -14 -14 -13 -13 -12 -12 -12 -12 -11 -11 -11 -12 -12 -12 -11 -11 -10 -10 -9 -10 -9 -10 -10 -10 -10 -9 -9 -9 -9 -9 -9 -9 -9 -8 -8 -8
-14 -14 -14 -14 -14 -14 -14 -14 -13 -13 -13 -12 -12 -12 -12 -11 -12 -12 -11 -12 -12 -11 -11 -10 -10 -9 -10 -10 -10 -10 -10 -9 -10 -9 -9 -9 -8 -8 -8 -9 -9 -8 -8 -7
-14 -14 -14 -14 -13 -14 -14 -13 -13 -13 -12 -12 -12 -12 -12 -11 -11 -11 -12 -12 -11 -11 -10 -10 -10 -9 -10 -10 -10 -9 -8 -9 -9 -9 -8 -8 -7 -8 -9 -8 -8 -8 -8 -8
-14 -14 -13 -13 -13 -12 -12 -12 -12 -12 -12 -12 -11 -11 -11 -11 -11 -10 -11 -11 -10 -10 -9 -9 -9 -9 -10 -10 -9 -8 -8 -8 -8 -8 -9 -8 -8 -8 -8 -8 -9 -8 -8 -8
-14 -13 -13 -12 -11 -11 -12 -12 -12 -12 -12 -12 -11 -11 -10 -10 -10 -10 -10 -10 -9 -9 -9 -10 -10 -10 -9 -9 -9 -8 -9 -8 -8 -8 -8 -9 -9 -9 -9 -9 -8 -9 -9 -9
-14 -13 -11 -11 -11 -11 -12 -12 -12 -12 -11 -11 -11 -11 -10 -10 -10 -10 -9 -9 -9 -9 -10 -10 -10 -9 -10 -9 -9 -8 -9 -8 -8 -8 -8 -8 -8 -9 -8 -9 -9 -9 -9 -9
-13 -11 -11 -11 -11 -11 -12 -12 -11 -11 -11 -12 -11 -11 -9 -9 -9 -9 -9 -9 -10 -10 -10 -10 -10 -10 -10 -9 -9 -8 -9 -9 -9 -8 -8 -8 -9 -9 -9 -9 -9 -9 -9 -9
Height
3000 3001 3001 3002 3001 3002 3003 3004 3007 3007 3010 3013 3012 3011 3015 3017 3019 3021 3024 3026 3027 3027 3027 3026 3027 3027 3027 3027 3027 3027 3027 3024 3022 3022 3022 3023 3024 3023 3024 3021 3019 3018 3014 3001
2995 2996 2996 2997 2996 2998 2999 2998 3002 3003 3006 3007 3006 3008 3011 3013 3014 3017 3019 3021 3022 3024 3025 3025 3022 3023 3024 3024 3024 3021 3021 3022 3019 3016 3020 3018 3018 3017 3019 3019 3019 3015 3014 2995
2989 2992 2993 2993 2994 2993 2995 2995 2997 2999 3001 3004 3003 3004 3006 3009 3009 3011 3014 3015 3017 3018 3019 3020 3017 3016 3019 3020 3020 3019 3018 3019 3018 3017 3019 3021 3018 3014 3017 3017 3015 3011 3006 2994
2987 2989 2990 2990 2991 2991 2992 2993 2994 2996 2996 3002 3000 3000 3003 3004 3005 3006 3008 3010 3011 3012 3013 3012 3011 3012 3012 3013 3014 3015 3015 3012 3012 3012 3012 3013 3013 3010 3008 3007 3005 3005 2996 2996
2984 2985 2987 2988 2988 2989 2990 2992 2993 2994 2996 2997 2998 2997 3000 3001 3000 3002 3002 3004 3005 3006 3007 3008 3008 3008 3009 3009 3011 3011 3011 3007 3007 3004 3004 3006 3007 3003 2997 3000 2996 2994 2992 2987
2980 2982 2984 2984 2985 2987 2987 2990 2990 2992 2995 2995 2995 2996 2998 2998 2999 2999 3001 3001 3002 3003 3003 3003 3004 3004 3005 3005 3005 3005 3005 3003 3002 2996 2999 3001 2998 2990 2991 2985 2986 2986 2981 2976
2978 2979 2980 2982 2984 2984 2986 2987 2989 2990 2990 2992 2994 2994 2995 2996 2997 2997 2999 2999 3000 3001 2999 2999 2999 2999 2999 2999 2998 3000 2998 2997 2998 2991 2989 2992 2981 2981 2980 2976 2973 2972 2971 2969
2975 2977 2979 2980 2982 2983 2984 2986 2987 2986 2985 2988 2990 2991 2991 2992 2992 2993 2992 2994 2995 2994 2995 2994 2992 2992 2990 2988 2988 2989 2990 2990 2988 2987 2980 2975 2973 2972 2971 2969 2968 2967 2963 2961
2973 2975 2977 2978 2980 2981 2982 2983 2983 2983 2983 2984 2986 2985 2987 2986 2986 2987 2987 2988 2989 2990 2989 2990 2988 2988 2986 2984 2981 2982 2983 2984 2984 2979 2976 2971 2967 2966 2964 2962 2957 2959 2954 2953
2971 2973 2975 2976 2977 2978 2980 2980 2980 2980 2978 2982 2981 2982 2981 2982 2982 2982 2982 2983 2984 2985 2984 2984 2984 2981 2981 2979 2977 2975 2976 2976 2973 2971 2969 2963 2960 2958 2956 2956 2952 2951 2950 2948
2968 2970 2971 2973 2974 2974 2975 2977 2977 2977 2974 2976 2977 2977 2977 2978 2978 2978 2979 2978 2977 2978 2979 2979 2977 2974 2972 2970 2966 2967 2967 2968 2964 2963 2962 2958 2953 2950 2949 2944 2943 2943 2944 2943
2964 2965 2966 2968 2969 2970 2970 2971 2973 2972 2969 2969 2971 2971 2972 2972 2974 2973 2972 2972 2973 2974 2973 2973 2972 2969 2965 2963 2959 2959 2958 2958 2956 2957 2949 2945 2945 2943 2942 2939 2937 2936 2935 2934
2960 2961 2962 2964 2965 2966 2966 2967 2968 2966 2963 2962 2964 2966 2966 2965 2965 2966 2964 2964 2965 2966 2969 2967 2965 2961 2958 2955 2951 2950 2947 2947 2945 2942 2934 2935 2934 2933 2935 2934 2931 2930 2929 2926
2956 2957 2959 2960 2961 2962 2962 2963 2963 2963 2962 2958 2958 2956 2958 2959 2958 2957 2957 2958 2959 2959 2959 2958 2954 2951 2949 2943 2942 2937 2935 2937 2935 2930 2920 2926 2923 2925 2925 2925 2923 2921 2922 2921
2952 2953 2954 2956 2957 2958 2958 2959 2959 2959 2960 2955 2952 2952 2954 2952 2949 2950 2951 2951 2952 2952 2950 2948 2944 2940 2942 2937 2934 2914 2924 2921 2926 2914 2917 2916 2915 2919 2919 2917 2916 2914 2912 2912
2948 2949 2951 2952 2953 2954 2955 2955 2956 2954 2954 2952 2948 2947 2946 2943 2944 2944 2945 2945 2945 2944 2942 2938 2935 2933 2935 2930 2919 2897 2911 2912 2910 2907 2911 2908 2908 2909 2910 2909 2907 2906 2904 2904
2946 2947 2948 2949 2950 2951 2952 2954 2953 2952 2951 2950 2947 2943 2942 2941 2941 2941 2941 2940 2938 2937 2934 2929 2929 2929 2930 2923 2909 2890 2904 2905 2904 2904 2904 2899 2902 2898 2900 2899 2899 2898 2897 2898
2944 2945 2946 2947 2948 2949 2951 2950 2950 2951 2951 2950 2945 2940 2938 2939 2937 2936 2935 2934 2933 2930 2927 2923 2922 2921 2919 2908 2892 2892 2898 2897 2895 2895 2894 2890 2889 2889 2889 2890 2890 2890 2890 2891
2942 2943 2945 2946 2947 2948 2949 2948 2948 2948 2950 2945 2940 2937 2935 2934 2934 2933 2931 2929 2925 2922 2915 2914 2914 2907 2901 2891 2892 2889 2889 2887 2884 2883 2881 2879 2878 2877 2878 2880 2882 2883 2883 2884
2941 2943 2945 2946 2947 2947 2947 2946 2945 2943 2941 2937 2933 2933 2930 2933 2930 2926 2926 2921 2918 2912 2909 2908 2900 2892 2892 2890 2886 2883 2880 2877 2875 2871 2870 2870 2866 2864 2865 2870 2874 2875 2877 2878
2941 2943 2945 2946 2946 2946 2945 2944 2942 2940 2936 2931 2928 2928 2926 2926 2924 2922 2920 2915 2914 2909 2905 2902 2894 2886 2887 2884 2880 2877 2874 2869 2866 2862 2858 2856 2855 2856 2858 2861 2866 2869 2871 2872
2942 2943 2944 2945 2944 2944 2943 2940 2938 2936 2932 2928 2926 2925 2923 2919 2917 2914 2912 2909 2908 2902 2900 2896 2888 2886 2882 2879 2875 2870 2864 2859 2854 2849 2846 2843 2844 2848 2852 2856 2860 2863 2866 2866
2941 2943 2943 2943 2943 2940 2938 2936 2934 2932 2928 2925 2921 2919 2916 2913 2910 2909 2908 2905 2900 2898 2894 2888 2885 2882 2878 2874 2868 2861 2855 2848 2843 2840 2837 2836 2837 2841 2848 2853 2856 2859 2860 2861
2941 2942 2941 2940 2937 2935 2934 2933 2931 2929 2923 2919 2914 2910 2909 2907 2906 2904 2902 2899 2897 2893 2888 2885 2882 2879 2874 2869 2863 2855 2849 2844 2841 2838 2836 2835 2837 2841 2846 2851 2854 2855 2856 2859
2941 2940 2937 2934 2935 2934 2933 2931 2928 2925 2920 2915 2909 2904 2902 2902 2901 2899 2898 2896 2892 2889 2886 2883 2879 2875 2870 2865 2860 2853 2849 2844 2842 2840 2837 2837 2840 2843 2847 2850 2852 2853 2856 2859
2938 2936 2933 2933 2932 2932 2931 2927 2924 2921 2917 2913 2909 2904 2901 2898 2897 2895 2893 2892 2890 2888 2884 2880 2876 2872 2867 2863 2858 2852 2849 2846 2843 2842 2842 2841 2842 2844 2846 2849 2851 2854 2857 2860
2934 2932 2931 2931 2929 2928 2926 2923 2920 2917 2914 2912 2909 2906 2903 2900 2897 2895 2893 2892 2888 2884 2881 2877 2873 2868 2864 2860 2856 2851 2849 2847 2846 2845 2844 2844 2845 2846 2848 2850 2852 2855 2857 2859
Wind_Speed
27 26 25 23 22 23 21 21 18 19 18 22 29 36 35 34 31 30 34 27 21 19 16 13 14 19 17 21 21 24 23 13 14 21 19 14 16 17 16 10 3 7 7 15
25 21 18 19 17 19 20 20 17 17 16 22 27 31 32 34 34 32 22 18 19 28 21 18 15 13 9 18 14 7 7 8 12 13 4 5 6 2 13 10 21 13 6 11
17 17 14 15 16 18 16 15 9 15 18 22 22 24 28 30 30 27 23 24 24 25 28 26 20 20 15 18 24 20 21 20 15 14 16 22 34 36 32 26 20 25 28 47
15 14 13 14 13 12 12 11 9 11 9 25 13 11 21 20 20 27 27 23 23 21 22 22 23 21 14 15 17 15 15 23 26 29 26 25 27 28 30 32 31 25 36 30
15 14 12 12 11 11 10 9 12 10 13 15 24 25 14 12 7 14 17 16 11 12 14 13 16 15 17 16 12 12 18 20 17 27 27 17 21 31 39 37 41 43 46 43
13 13 11 12 11 10 10 9 10 12 14 14 14 12 14 7 7 1 6 9 11 13 12 14 16 18 18 17 19 20 21 20 13 27 30 15 15 37 32 38 38 36 39 39
11 10 10 11 9 9 11 10 12 15 18 17 17 16 17 16 16 17 16 15 16 16 18 21 23 24 25 26 27 25 28 29 29 30 31 6 26 20 26 31 33 35 35 37
9 8 7 8 8 10 11 11 14 16 20 19 19 18 21 22 22 23 24 21 19 19 21 23 24 26 29 33 34 33 31 29 18 11 24 27 32 25 18 15 26 34 36 34
10 8 8 9 9 9 10 10 12 14 18 18 14 16 16 18 19 19 20 19 16 16 17 14 13 9 17 10 11 15 15 15 19 18 12 13 34 40 38 34 33 32 19 22
12 12 12 13 14 14 14 13 16 18 23 16 19 17 17 17 17 20 21 18 15 16 20 23 25 25 26 21 24 32 26 21 26 30 20 18 36 36 39 23 34 26 27 21
16 17 18 19 19 20 20 19 20 22 26 22 21 21 23 22 21 20 19 22 21 18 19 16 19 19 22 23 33 32 33 19 23 20 14 15 32 26 32 35 19 17 26 20
20 19 18 18 20 22 23 22 20 23 29 30 26 25 25 25 19 21 23 25 21 11 11 12 10 18 22 20 23 24 28 29 26 22 35 41 36 30 27 25 32 35 35 35
16 15 14 15 16 18 21 19 19 28 33 34 26 20 17 20 20 18 26 26 27 25 22 29 33 36 36 36 39 40 47 47 41 39 41 39 34 30 27 25 27 29 30 28
14 15 16 15 15 17 19 18 19 22 22 27 28 27 25 20 22 27 29 29 24 26 24 27 35 42 33 38 40 43 42 38 35 37 45 39 34 25 24 22 26 30 29 24
16 16 16 18 17 18 18 20 19 19 19 23 27 28 21 17 22 24 25 24 25 28 31 36 39 41 39 45 43 56 45 44 39 48 32 30 28 23 23 26 27 25 30 30
12 14 15 14 15 15 16 15 13 13 14 21 28 19 17 14 19 20 20 21 24 27 30 35 40 42 39 33 44 43 42 38 32 34 23 26 25 27 28 28 26 27 27 29
12 12 11 12 12 11 10 9 7 6 7 12 15 19 2 2 12 9 14 16 19 21 28 36 35 31 33 32 45 24 32 32 29 29 32 35 30 32 27 27 26 28 27 25
9 10 11 10 10 10 7 8 10 10 12 18 15 23 28 18 20 13 11 15 16 22 27 34 34 31 28 36 39 35 37 35 36 33 32 35 35 34 32 28 30 27 27 25
11 10 9 9 7 6 8 12 15 16 18 22 24 29 27 10 11 18 25 21 23 26 31 32 27 31 28 36 37 31 30 35 34 28 29 33 36 37 35 33 30 25 22 23
9 8 8 6 7 9 12 15 17 18 20 27 31 28 32 26 27 29 21 13 14 18 23 16 23 36 31 27 24 21 23 26 25 29 30 29 32 32 33 34 27 26 21 22
10 9 8 6 7 8 8 7 6 6 10 16 17 13 16 15 19 21 17 10 8 10 14 14 13 27 25 19 14 16 20 24 28 34 37 35 31 25 20 22 23 22 21 20
9 7 7 7 7 5 6 6 7 9 10 14 13 17 23 24 30 28 15 15 9 11 10 8 6 9 16 21 27 27 31 33 37 32 33 32 25 20 19 21 19 18 19 20
10 8 6 5 5 7 7 6 8 7 16 24 26 27 27 31 13 10 8 7 9 8 7 5 5 12 17 28 31 33 22 26 21 18 17 11 12 20 21 20 15 15 18 16
9 6 6 5 6 6 7 12 16 21 27 28 29 34 26 21 13 9 6 7 6 5 5 4 19 28 26 28 32 30 24 21 11 5 6 2 9 15 21 17 12 15 16 14
7 6 5 8 6 5 9 15 21 23 23 23 26 21 7 8 8 5 6 4 5 5 6 16 28 31 33 29 31 26 20 17 6 8 6 6 8 13 18 14 11 15 13 14
11 9 6 6 10 11 15 17 18 18 21 21 21 11 6 5 5 5 5 3 3 10 24 28 32 32 31 28 29 23 16 12 7 4 2 6 5 7 13 15 18 14 13 13
8 7 5 9 17 19 17 15 17 21 21 16 12 6 4 9 6 5 5 6 26 31 30 34 32 30 30 29 26 22 11 7 4 2 6 10 5 7 11 10 11 14 16 16
Wind_Direction
246 252 261 267 271 269 271 268 264 256 247 234 232 235 237 242 246 243 246 251 253 274 284 281 281 285 291 288 292 296 297 291 283 299 305 295 278 276 263 237 315 307 276 256
245 250 261 267 272 277 275 265 254 246 238 237 240 243 247 246 252 245 240 240 247 257 263 277 267 268 258 264 269 265 290 285 309 309 310 223 215 213 317 325 319 270 274 271
233 247 260 276 282 282 272 261 253 238 227 244 248 251 253 255 255 257 250 254 251 252 258 262 272 269 268 259 264 274 278 269 251 255 261 278 284 283 287 290 269 275 264 288
240 252 261 270 271 259 255 249 247 239 238 223 219 248 253 263 262 256 255 259 255 250 251 252 255 266 273 265 278 270 256 261 263 268 273 274 276 281 278 272 276 270 280 279
243 250 252 260 258 253 254 248 236 244 242 234 238 250 274 255 220 231 213 226 236 249 271 269 264 266 277 289 279 265 280 280 282 282 285 287 284 281 273 278 278 274 276 284
227 230 238 245 250 243 246 252 252 250 248 249 255 264 253 254 247 219 222 256 251 249 249 261 265 265 267 270 275 281 282 285 287 286 294 293 270 277 286 286 284 287 272 294
227 232 234 238 238 245 256 257 258 259 259 255 256 255 262 265 266 267 260 257 261 263 269 273 272 273 271 269 267 269 275 281 279 276 293 210 283 292 292 287 291 293 290 290
204 217 228 239 241 251 261 261 259 262 269 269 265 269 269 266 267 269 274 273 277 272 270 279 285 283 281 273 273 272 275 274 253 244 262 277 283 292 290 296 303 302 295 277
214 222 239 252 253 253 257 262 269 276 279 282 292 284 282 282 276 273 274 275 270 271 273 262 255 258 274 279 283 284 275 266 255 267 283 277 279 283 289 289 301 308 288 282
238 248 254 260 262 262 264 265 270 272 278 289 290 297 289 284 281 279 284 288 274 262 250 255 259 260 261 254 261 271 268 266 258 259 254 271 288 285 286 284 281 291 283 272
254 259 260 258 259 263 266 265 265 269 275 279 282 282 281 284 280 284 292 288 284 273 257 252 259 257 260 257 268 266 262 254 250 256 250 264 304 297 266 271 270 281 293 293
258 257 257 255 251 255 262 265 263 266 270 277 279 282 279 277 278 272 270 269 263 249 251 243 258 254 260 260 262 264 249 249 257 265 269 279 278 277 279 273 285 288 290 281
251 249 250 249 246 247 259 267 274 273 262 265 278 287 275 268 278 268 264 268 271 275 279 270 266 263 264 261 264 268 267 273 274 278 274 279 282 283 270 279 280 283 286 285
246 249 246 246 250 251 253 260 262 271 279 278 286 280 282 282 267 260 263 269 270 273 268 266 267 265 270 273 277 276 273 275 271 270 274 276 276 276 280 280 275 274 274 280
253 251 247 246 255 256 257 262 271 272 270 274 276 283 288 286 268 256 263 255 259 267 268 265 268 276 271 276 281 278 271 275 261 272 289 276 276 281 279 273 281 277 269 271
246 244 247 250 249 259 266 269 270 269 271 276 286 290 304 277 263 263 267 271 266 263 269 270 272 278 268 264 269 286 286 282 273 273 281 278 278 279 280 283 282 280 275 266
254 244 237 245 248 248 246 257 275 280 288 293 297 305 294 343 316 277 278 260 272 270 266 266 273 281 277 262 269 287 284 284 283 286 288 286 291 293 288 277 285 289 279 276
218 222 238 234 237 241 246 246 249 272 267 275 277 278 290 309 303 291 281 278 274 272 273 273 279 280 267 262 271 293 291 292 291 287 283 277 273 270 270 273 280 283 281 279
211 229 225 227 224 224 244 268 277 277 271 274 276 281 296 298 294 297 298 293 280 283 273 280 280 272 250 287 299 304 301 296 291 282 270 265 266 266 264 261 268 271 272 275
205 200 207 225 243 263 271 276 278 277 279 272 272 280 282 292 294 293 296 282 266 262 285 285 264 270 290 299 295 297 301 292 285 281 274 281 277 286 259 252 253 249 259 272
192 196 212 242 279 285 281 262 253 261 257 266 295 305 307 313 297 291 284 256 265 273 284 253 263 273 299 293 283 301 305 303 300 294 288 282 280 283 250 231 231 239 253 267
194 206 235 266 273 251 243 246 244 243 261 265 273 298 315 304 310 274 260 245 242 244 249 246 257 302 330 341 332 310 298 294 293 288 283 280 264 245 224 213 227 243 253 272
201 219 257 251 232 236 231 244 255 266 282 313 321 306 299 300 289 239 235 236 239 262 242 250 271 320 338 336 331 330 317 315 317 303 289 290 230 204 205 213 225 238 265 235
203 232 248 248 233 243 276 307 310 322 317 322 319 315 282 276 256 241 240 243 248 256 264 265 327 338 335 336 335 335 336 332 336 321 309 326 180 190 200 213 224 269 197 201
218 244 241 241 254 295 316 318 311 310 317 326 332 332 289 246 230 239 239 245 251 252 281 336 345 341 339 342 339 337 335 339 336 26 71 124 180 199 206 214 255 186 170 172
235 245 254 286 291 321 324 314 315 318 322 333 345 322 300 249 251 235 234 266 282 339 339 340 335 334 332 337 337 337 332 334 344 297 294 138 136 222 213 222 192 193 186 181
239 257 254 287 309 318 326 331 320 317 324 332 335 313 290 305 298 332 334 306 326 327 332 326 330 327 331 333 336 333 314 270 257 233 152 159 163 161 177 189 200 200 198 200